Location: Unspecified
(0.0000°N, 0.0000°E)
Time: 00:50:20
(UTC+00:00)

Tiros 1 despin weight - Visible Passes

Search period start: 17 April 2014 00:00
Search period end: 27 April 2014 00:00
Orbit: 603 x 654 km, 48.2° (Epoch: 15 April)

Date Brightness Start Highest point End Pass type
(mag) Time Alt. Az. Time Alt. Az. Time Alt. Az.
18 Apr ? 04:25:41 10° S 04:28:35 17° SE 04:31:27 10° E visible
18 Apr ? 18:16:17 10° W 18:19:54 22° SW 18:23:34 10° S visible
19 Apr ? 04:44:58 16° SSW 04:48:23 47° SE 04:52:42 10° NE visible
20 Apr ? 03:27:32 10° ESE 03:27:32 10° ESE 03:27:39 10° ESE visible
20 Apr ? 05:04:51 18° SW 05:08:07 55° NW 05:12:30 10° NNE visible
21 Apr ? 03:47:22 27° ESE 03:47:22 27° ESE 03:50:15 10° ENE visible
21 Apr ? 05:24:41 10° W 05:27:51 19° NW 05:31:01 10° N visible
22 Apr ? 04:07:06 52° NE 04:07:06 52° NE 04:10:30 10° NE visible
23 Apr ? 04:26:43 26° NNW 04:26:43 26° NNW 04:29:35 10° N visible
